Year,Month,Day,Hour,Minute,Value (Times are PST for insolation in W/m^2)
2022,12,01,00,00,0.00
2022,12,01,00,01,0.00
2022,12,01,00,02,0.00
2022,12,01,00,03,0.00
2022,12,01,00,04,0.00
2022,12,01,00,05,0.00
2022,12,01,00,06,0.00
2022,12,01,00,07,0.00
2022,12,01,00,08,0.00
2022,12,01,00,09,0.00
2022,12,01,00,10,0.00
2022,12,01,00,11,0.00
2022,12,01,00,12,0.00
2022,12,01,00,13,0.00
2022,12,01,00,14,0.00
2022,12,01,00,15,0.00
2022,12,01,00,16,0.00
2022,12,01,00,17,0.00
2022,12,01,00,18,0.00
2022,12,01,00,19,0.00
2022,12,01,00,20,0.00
2022,12,01,00,21,0.00
2022,12,01,00,22,0.00
2022,12,01,00,23,0.00
2022,12,01,00,24,0.00
2022,12,01,00,25,0.00
2022,12,01,00,26,0.00
2022,12,01,00,27,0.00
2022,12,01,00,28,0.00
2022,12,01,00,29,0.00
2022,12,01,00,30,0.00
2022,12,01,00,31,0.00
2022,12,01,00,32,0.00
2022,12,01,00,33,0.00
2022,12,01,00,34,0.00
2022,12,01,00,35,0.00
2022,12,01,00,36,0.00
2022,12,01,00,37,0.00
2022,12,01,00,38,0.00
2022,12,01,00,39,0.00
2022,12,01,00,40,0.00
2022,12,01,00,41,0.00
2022,12,01,00,42,0.00
2022,12,01,00,43,0.00
2022,12,01,00,44,0.00
2022,12,01,00,45,0.00
2022,12,01,00,46,0.00
2022,12,01,00,47,0.00
2022,12,01,00,48,0.00
2022,12,01,00,49,0.00
2022,12,01,00,50,0.00
2022,12,01,00,51,0.00
2022,12,01,00,52,0.00
2022,12,01,00,53,0.00
2022,12,01,00,54,0.00
2022,12,01,00,55,0.00
2022,12,01,00,56,0.00
2022,12,01,00,57,0.00
2022,12,01,00,58,0.00
2022,12,01,00,59,0.00
2022,12,01,01,00,0.00
2022,12,01,01,01,0.00
2022,12,01,01,02,0.00
2022,12,01,01,03,0.00
2022,12,01,01,04,0.00
2022,12,01,01,05,0.00
2022,12,01,01,06,0.00
2022,12,01,01,07,0.00
2022,12,01,01,08,0.00
2022,12,01,01,09,0.00
2022,12,01,01,10,0.00
2022,12,01,01,11,0.00
2022,12,01,01,12,0.00
2022,12,01,01,13,0.00
2022,12,01,01,14,0.00
2022,12,01,01,15,0.00
2022,12,01,01,16,0.00
2022,12,01,01,17,0.00
2022,12,01,01,18,0.00
2022,12,01,01,19,0.00
2022,12,01,01,20,0.00
2022,12,01,01,21,0.00
2022,12,01,01,22,0.00
2022,12,01,01,23,0.00
2022,12,01,01,24,0.00
2022,12,01,01,25,0.00
2022,12,01,01,26,0.00
2022,12,01,01,27,0.00
2022,12,01,01,28,0.00
2022,12,01,01,29,0.00
2022,12,01,01,30,0.00
2022,12,01,01,31,0.00
2022,12,01,01,32,0.00
2022,12,01,01,33,0.00
2022,12,01,01,34,0.00
2022,12,01,01,35,0.00
2022,12,01,01,36,0.00
2022,12,01,01,37,0.00
2022,12,01,01,38,0.00
2022,12,01,01,39,0.00
2022,12,01,01,40,0.00
2022,12,01,01,41,0.00
2022,12,01,01,42,0.00
2022,12,01,01,43,0.00
2022,12,01,01,44,0.00
2022,12,01,01,45,0.00
2022,12,01,01,46,0.00
2022,12,01,01,47,0.00
2022,12,01,01,48,0.00
2022,12,01,01,49,0.00
2022,12,01,01,50,0.00
2022,12,01,01,51,0.00
2022,12,01,01,52,0.00
2022,12,01,01,53,0.00
2022,12,01,01,54,0.00
2022,12,01,01,55,0.00
2022,12,01,01,56,0.00
2022,12,01,01,57,0.00
2022,12,01,01,58,0.00
2022,12,01,01,59,0.00
2022,12,01,02,00,0.00
2022,12,01,02,01,0.00
2022,12,01,02,02,0.00
2022,12,01,02,03,0.00
2022,12,01,02,04,0.00
2022,12,01,02,05,0.00
2022,12,01,02,06,0.00
2022,12,01,02,07,0.00
2022,12,01,02,08,0.00
2022,12,01,02,09,0.00
2022,12,01,02,10,0.00
2022,12,01,02,11,0.00
2022,12,01,02,12,0.00
2022,12,01,02,13,0.00
2022,12,01,02,14,0.00
2022,12,01,02,15,0.00
2022,12,01,02,16,0.00
2022,12,01,02,17,0.00
2022,12,01,02,18,0.00
2022,12,01,02,19,0.00
2022,12,01,02,20,0.00
2022,12,01,02,21,0.00
2022,12,01,02,22,0.00
2022,12,01,02,23,0.00
2022,12,01,02,24,0.00
2022,12,01,02,25,0.00
2022,12,01,02,26,0.00
2022,12,01,02,27,0.00
2022,12,01,02,28,0.00
2022,12,01,02,29,0.00
2022,12,01,02,30,0.00
2022,12,01,02,31,0.00
2022,12,01,02,32,0.00
2022,12,01,02,33,0.00
2022,12,01,02,34,0.00
2022,12,01,02,35,0.00
2022,12,01,02,36,0.00
2022,12,01,02,37,0.00
2022,12,01,02,38,0.00
2022,12,01,02,39,0.00
2022,12,01,02,40,0.00
2022,12,01,02,41,0.00
2022,12,01,02,42,0.00
2022,12,01,02,43,0.00
2022,12,01,02,44,0.00
2022,12,01,02,45,0.00
2022,12,01,02,46,0.00
2022,12,01,02,47,0.00
2022,12,01,02,48,0.00
2022,12,01,02,49,0.00
2022,12,01,02,50,0.00
2022,12,01,02,51,0.00
2022,12,01,02,52,0.00
2022,12,01,02,53,0.00
2022,12,01,02,54,0.00
2022,12,01,02,55,0.00
2022,12,01,02,56,0.00
2022,12,01,02,57,0.00
2022,12,01,02,58,0.00
2022,12,01,02,59,0.00
2022,12,01,03,00,0.00
2022,12,01,03,01,0.00
2022,12,01,03,02,0.00
2022,12,01,03,03,0.00
2022,12,01,03,04,0.00
2022,12,01,03,05,0.00
2022,12,01,03,06,0.00
2022,12,01,03,07,0.00
2022,12,01,03,08,0.00
2022,12,01,03,09,0.00
2022,12,01,03,10,0.00
2022,12,01,03,11,0.00
2022,12,01,03,12,0.00
2022,12,01,03,13,0.00
2022,12,01,03,14,0.00
2022,12,01,03,15,0.00
2022,12,01,03,16,0.00
2022,12,01,03,17,0.00
2022,12,01,03,18,0.00
2022,12,01,03,19,0.00
2022,12,01,03,20,0.00
2022,12,01,03,21,0.00
2022,12,01,03,22,0.00
2022,12,01,03,23,0.00
2022,12,01,03,24,0.00
2022,12,01,03,25,0.00
2022,12,01,03,26,0.00
2022,12,01,03,27,0.00
2022,12,01,03,28,0.00
2022,12,01,03,29,0.00
2022,12,01,03,30,0.00
2022,12,01,03,31,0.00
2022,12,01,03,32,0.00
2022,12,01,03,33,0.00
2022,12,01,03,34,0.00
2022,12,01,03,35,0.00
2022,12,01,03,36,0.00
2022,12,01,03,37,0.00
2022,12,01,03,38,0.00
2022,12,01,03,39,0.00
2022,12,01,03,40,0.00
2022,12,01,03,41,0.00
2022,12,01,03,42,0.00
2022,12,01,03,43,0.00
2022,12,01,03,44,0.00
2022,12,01,03,45,0.00
2022,12,01,03,46,0.00
2022,12,01,03,47,0.00
2022,12,01,03,48,0.00
2022,12,01,03,49,0.00
2022,12,01,03,50,0.00
2022,12,01,03,51,0.00
2022,12,01,03,52,0.00
2022,12,01,03,53,0.00
2022,12,01,03,54,0.00
2022,12,01,03,55,0.00
2022,12,01,03,56,0.00
2022,12,01,03,57,0.00
2022,12,01,03,58,0.00
2022,12,01,03,59,0.00
2022,12,01,04,00,0.00
2022,12,01,04,01,0.00
2022,12,01,04,02,0.00
2022,12,01,04,03,0.00
2022,12,01,04,04,0.00
2022,12,01,04,05,0.00
2022,12,01,04,06,0.00
2022,12,01,04,07,0.00
2022,12,01,04,08,0.00
2022,12,01,04,09,0.00
2022,12,01,04,10,0.00
2022,12,01,04,11,0.00
2022,12,01,04,12,0.00
2022,12,01,04,13,0.00
2022,12,01,04,14,0.00
2022,12,01,04,15,0.00
2022,12,01,04,16,0.00
2022,12,01,04,17,0.00
2022,12,01,04,18,0.00
2022,12,01,04,19,0.00
2022,12,01,04,20,0.00
2022,12,01,04,21,0.00
2022,12,01,04,22,0.00
2022,12,01,04,23,0.00
2022,12,01,04,24,0.00
2022,12,01,04,25,0.00
2022,12,01,04,26,0.00
2022,12,01,04,27,0.00
2022,12,01,04,28,0.00
2022,12,01,04,29,0.00
2022,12,01,04,30,0.00
2022,12,01,04,31,0.00
2022,12,01,04,32,0.00
2022,12,01,04,33,0.00
2022,12,01,04,34,0.00
2022,12,01,04,35,0.00
2022,12,01,04,36,0.00
2022,12,01,04,37,0.00
2022,12,01,04,38,0.00
2022,12,01,04,39,0.00
2022,12,01,04,40,0.00
2022,12,01,04,41,0.00
2022,12,01,04,42,0.00
2022,12,01,04,43,0.00
2022,12,01,04,44,0.00
2022,12,01,04,45,0.00
2022,12,01,04,46,0.00
2022,12,01,04,47,0.00
2022,12,01,04,48,0.00
2022,12,01,04,49,0.00
2022,12,01,04,50,0.00
2022,12,01,04,51,0.00
2022,12,01,04,52,0.00
2022,12,01,04,53,0.00
2022,12,01,04,54,0.00
2022,12,01,04,55,0.00
2022,12,01,04,56,0.00
2022,12,01,04,57,0.00
2022,12,01,04,58,0.00
2022,12,01,04,59,0.00
2022,12,01,05,00,0.00
2022,12,01,05,01,0.00
2022,12,01,05,02,0.00
2022,12,01,05,03,0.00
2022,12,01,05,04,0.00
2022,12,01,05,05,0.00
2022,12,01,05,06,0.00
2022,12,01,05,07,0.00
2022,12,01,05,08,0.00
2022,12,01,05,09,0.00
2022,12,01,05,10,0.00
2022,12,01,05,11,0.00
2022,12,01,05,12,0.00
2022,12,01,05,13,0.00
2022,12,01,05,14,0.00
2022,12,01,05,15,0.00
2022,12,01,05,16,0.00
2022,12,01,05,17,0.00
2022,12,01,05,18,0.00
2022,12,01,05,19,0.00
2022,12,01,05,20,0.00
2022,12,01,05,21,0.00
2022,12,01,05,22,0.00
2022,12,01,05,23,0.00
2022,12,01,05,24,0.00
2022,12,01,05,25,0.00
2022,12,01,05,26,0.00
2022,12,01,05,27,0.00
2022,12,01,05,28,0.00
2022,12,01,05,29,0.00
2022,12,01,05,30,0.00
2022,12,01,05,31,0.00
2022,12,01,05,32,0.00
2022,12,01,05,33,0.00
2022,12,01,05,34,0.00
2022,12,01,05,35,0.00
2022,12,01,05,36,0.00
2022,12,01,05,37,0.00
2022,12,01,05,38,0.00
2022,12,01,05,39,0.00
2022,12,01,05,40,0.00
2022,12,01,05,41,0.00
2022,12,01,05,42,0.00
2022,12,01,05,43,0.00
2022,12,01,05,44,0.00
2022,12,01,05,45,0.00
2022,12,01,05,46,0.00
2022,12,01,05,47,0.00
2022,12,01,05,48,0.00
2022,12,01,05,49,0.00
2022,12,01,05,50,0.00
2022,12,01,05,51,0.00
2022,12,01,05,52,0.00
2022,12,01,05,53,0.00
2022,12,01,05,54,0.00
2022,12,01,05,55,0.00
2022,12,01,05,56,0.00
2022,12,01,05,57,0.00
2022,12,01,05,58,0.00
2022,12,01,05,59,0.00
2022,12,01,06,00,0.00
2022,12,01,06,01,0.00
2022,12,01,06,02,0.00
2022,12,01,06,03,0.00
2022,12,01,06,04,0.00
2022,12,01,06,05,0.00
2022,12,01,06,06,0.00
2022,12,01,06,07,0.00
2022,12,01,06,08,0.00
2022,12,01,06,09,0.00
2022,12,01,06,10,0.00
2022,12,01,06,11,0.00
2022,12,01,06,12,0.00
2022,12,01,06,13,0.00
2022,12,01,06,14,0.00
2022,12,01,06,15,0.00
2022,12,01,06,16,0.00
2022,12,01,06,17,0.00
2022,12,01,06,18,0.00
2022,12,01,06,19,0.00
2022,12,01,06,20,0.00
2022,12,01,06,21,0.00
2022,12,01,06,22,0.00
2022,12,01,06,23,0.00
2022,12,01,06,24,0.00
2022,12,01,06,25,0.00
2022,12,01,06,26,0.00
2022,12,01,06,27,0.00
2022,12,01,06,28,0.00
2022,12,01,06,29,0.00
2022,12,01,06,30,0.00
2022,12,01,06,31,0.00
2022,12,01,06,32,0.00
2022,12,01,06,33,0.00
2022,12,01,06,34,0.00
2022,12,01,06,35,0.00
2022,12,01,06,36,0.00
2022,12,01,06,37,0.00
2022,12,01,06,38,0.00
2022,12,01,06,39,0.00
2022,12,01,06,40,0.00
2022,12,01,06,41,0.00
2022,12,01,06,42,0.00
2022,12,01,06,43,0.00
2022,12,01,06,44,0.00
2022,12,01,06,45,0.00
2022,12,01,06,46,0.00
2022,12,01,06,47,0.00
2022,12,01,06,48,0.00
2022,12,01,06,49,0.00
2022,12,01,06,50,0.00
2022,12,01,06,51,0.00
2022,12,01,06,52,0.00
2022,12,01,06,53,0.00
2022,12,01,06,54,0.00
2022,12,01,06,55,0.00
2022,12,01,06,56,0.00
2022,12,01,06,57,0.00
2022,12,01,06,58,0.00
2022,12,01,06,59,0.00
2022,12,01,07,00,0.00
2022,12,01,07,01,0.00
2022,12,01,07,02,0.00
2022,12,01,07,03,0.00
2022,12,01,07,04,0.00
2022,12,01,07,05,0.00
2022,12,01,07,06,0.00
2022,12,01,07,07,0.00
2022,12,01,07,08,0.00
2022,12,01,07,09,0.00
2022,12,01,07,10,0.00
2022,12,01,07,11,0.00
2022,12,01,07,12,0.00
2022,12,01,07,13,0.00
2022,12,01,07,14,0.00
2022,12,01,07,15,0.00
2022,12,01,07,16,0.00
2022,12,01,07,17,0.00
2022,12,01,07,18,0.00
2022,12,01,07,19,0.00
2022,12,01,07,20,0.00
2022,12,01,07,21,0.00
2022,12,01,07,22,0.00
2022,12,01,07,23,0.00
2022,12,01,07,24,0.00
2022,12,01,07,25,0.00
2022,12,01,07,26,0.00
2022,12,01,07,27,0.00
2022,12,01,07,28,0.00
2022,12,01,07,29,0.00
2022,12,01,07,30,0.00
2022,12,01,07,31,0.00
2022,12,01,07,32,0.00
2022,12,01,07,33,0.00
2022,12,01,07,34,0.00
2022,12,01,07,35,0.00
2022,12,01,07,36,0.00
2022,12,01,07,37,0.00
2022,12,01,07,38,0.00
2022,12,01,07,39,0.00
2022,12,01,07,40,0.00
2022,12,01,07,41,0.00
2022,12,01,07,42,0.00
2022,12,01,07,43,0.00
2022,12,01,07,44,0.00
2022,12,01,07,45,0.00
2022,12,01,07,46,0.00
2022,12,01,07,47,0.00
2022,12,01,07,48,0.00
2022,12,01,07,49,0.00
2022,12,01,07,50,0.00
2022,12,01,07,51,0.00
2022,12,01,07,52,0.00
2022,12,01,07,53,0.00
2022,12,01,07,54,0.00
2022,12,01,07,55,0.00
2022,12,01,07,56,0.00
2022,12,01,07,57,0.00
2022,12,01,07,58,0.00
2022,12,01,07,59,0.00
2022,12,01,08,00,0.00
2022,12,01,08,01,0.00
2022,12,01,08,02,0.00
2022,12,01,08,03,0.00
2022,12,01,08,04,0.00
2022,12,01,08,05,0.00
2022,12,01,08,06,0.00
2022,12,01,08,07,0.00
2022,12,01,08,08,0.00
2022,12,01,08,09,4.20
2022,12,01,08,10,5.00
2022,12,01,08,11,4.20
2022,12,01,08,12,0.00
2022,12,01,08,13,0.00
2022,12,01,08,14,0.00
2022,12,01,08,15,3.00
2022,12,01,08,16,5.00
2022,12,01,08,17,5.00
2022,12,01,08,18,5.00
2022,12,01,08,19,5.00
2022,12,01,08,20,5.00
2022,12,01,08,21,5.00
2022,12,01,08,22,5.00
2022,12,01,08,23,5.00
2022,12,01,08,24,5.00
2022,12,01,08,25,5.00
2022,12,01,08,26,5.00
2022,12,01,08,27,5.00
2022,12,01,08,28,5.00
2022,12,01,08,29,5.00
2022,12,01,08,30,5.80
2022,12,01,08,31,7.00
2022,12,01,08,32,7.00
2022,12,01,08,33,7.00
2022,12,01,08,34,7.00
2022,12,01,08,35,7.00
2022,12,01,08,36,7.20
2022,12,01,08,37,9.00
2022,12,01,08,38,9.00
2022,12,01,08,39,8.20
2022,12,01,08,40,7.00
2022,12,01,08,41,8.30
2022,12,01,08,42,9.00
2022,12,01,08,43,9.00
2022,12,01,08,44,9.10
2022,12,01,08,45,11.00
2022,12,01,08,46,11.00
2022,12,01,08,47,11.00
2022,12,01,08,48,11.00
2022,12,01,08,49,11.00
2022,12,01,08,50,11.70
2022,12,01,08,51,12.00
2022,12,01,08,52,12.00
2022,12,01,08,53,12.20
2022,12,01,08,54,14.40
2022,12,01,08,55,16.00
2022,12,01,08,56,16.90
2022,12,01,08,57,18.50
2022,12,01,08,58,22.50
2022,12,01,08,59,28.50
2022,12,01,09,00,30.00
2022,12,01,09,01,32.80
2022,12,01,09,02,33.80
2022,12,01,09,03,40.70
2022,12,01,09,04,47.00
2022,12,01,09,05,48.10
2022,12,01,09,06,47.00
2022,12,01,09,07,48.20
2022,12,01,09,08,52.10
2022,12,01,09,09,57.30
2022,12,01,09,10,62.80
2022,12,01,09,11,63.00
2022,12,01,09,12,67.50
2022,12,01,09,13,80.20
2022,12,01,09,14,80.00
2022,12,01,09,15,81.00
2022,12,01,09,16,84.60
2022,12,01,09,17,91.70
2022,12,01,09,18,99.30
2022,12,01,09,19,102.90
2022,12,01,09,20,116.50
2022,12,01,09,21,127.30
2022,12,01,09,22,111.90
2022,12,01,09,23,110.00
2022,12,01,09,24,111.00
2022,12,01,09,25,113.20
2022,12,01,09,26,119.70
2022,12,01,09,27,105.60
2022,12,01,09,28,101.20
2022,12,01,09,29,94.80
2022,12,01,09,30,88.00
2022,12,01,09,31,88.00
2022,12,01,09,32,85.30
2022,12,01,09,33,83.70
2022,12,01,09,34,90.90
2022,12,01,09,35,101.10
2022,12,01,09,36,102.00
2022,12,01,09,37,101.20
2022,12,01,09,38,98.00
2022,12,01,09,39,98.00
2022,12,01,09,40,104.80
2022,12,01,09,41,115.20
2022,12,01,09,42,124.30
2022,12,01,09,43,131.00
2022,12,01,09,44,123.90
2022,12,01,09,45,119.70
2022,12,01,09,46,118.00
2022,12,01,09,47,120.30
2022,12,01,09,48,127.10
2022,12,01,09,49,130.00
2022,12,01,09,50,154.10
2022,12,01,09,51,148.20
2022,12,01,09,52,210.80
2022,12,01,09,53,300.90
2022,12,01,09,54,294.00
2022,12,01,09,55,248.70
2022,12,01,09,56,128.00
2022,12,01,09,57,134.70
2022,12,01,09,58,148.50
2022,12,01,09,59,151.60
2022,12,01,10,00,148.80
2022,12,01,10,01,148.00
2022,12,01,10,02,151.20
2022,12,01,10,03,152.30
2022,12,01,10,04,156.60
2022,12,01,10,05,169.80
2022,12,01,10,06,161.40
2022,12,01,10,07,160.00
2022,12,01,10,08,178.90
2022,12,01,10,09,151.70
2022,12,01,10,10,131.00
2022,12,01,10,11,121.00
2022,12,01,10,12,121.00
2022,12,01,10,13,119.20
2022,12,01,10,14,118.10
2022,12,01,10,15,128.60
2022,12,01,10,16,135.00
2022,12,01,10,17,135.00
2022,12,01,10,18,135.00
2022,12,01,10,19,124.80
2022,12,01,10,20,117.60
2022,12,01,10,21,115.50
2022,12,01,10,22,114.00
2022,12,01,10,23,114.00
2022,12,01,10,24,115.20
2022,12,01,10,25,137.00
2022,12,01,10,26,138.30
2022,12,01,10,27,147.90
2022,12,01,10,28,160.50
2022,12,01,10,29,169.60
2022,12,01,10,30,217.70
2022,12,01,10,31,253.10
2022,12,01,10,32,209.00
2022,12,01,10,33,296.10
2022,12,01,10,34,351.70
2022,12,01,10,35,374.70
2022,12,01,10,36,338.40
2022,12,01,10,37,299.90
2022,12,01,10,38,281.00
2022,12,01,10,39,277.00
2022,12,01,10,40,214.00
2022,12,01,10,41,214.00
2022,12,01,10,42,214.00
2022,12,01,10,43,214.00
2022,12,01,10,44,376.90
2022,12,01,10,45,410.00
2022,12,01,10,46,410.00
2022,12,01,10,47,410.00
2022,12,01,10,48,410.00
2022,12,01,10,49,410.00
2022,12,01,10,50,410.00
2022,12,01,10,51,258.70
2022,12,01,10,52,215.00
2022,12,01,10,53,224.40
2022,12,01,10,54,220.80
2022,12,01,10,55,179.00
2022,12,01,10,56,172.00
2022,12,01,10,57,169.60
2022,12,01,10,58,159.80
2022,12,01,10,59,153.70
2022,12,01,11,00,154.50
2022,12,01,11,01,155.00
2022,12,01,11,02,153.30
2022,12,01,11,03,156.00
2022,12,01,11,04,155.80
2022,12,01,11,05,155.00
2022,12,01,11,06,155.00
2022,12,01,11,07,156.80
2022,12,01,11,08,158.00
2022,12,01,11,09,178.20
2022,12,01,11,10,183.00
2022,12,01,11,11,173.70
2022,12,01,11,12,170.60
2022,12,01,11,13,164.30
2022,12,01,11,14,163.00
2022,12,01,11,15,162.40
2022,12,01,11,16,160.80
2022,12,01,11,17,160.00
2022,12,01,11,18,164.20
2022,12,01,11,19,164.90
2022,12,01,11,20,162.50
2022,12,01,11,21,159.50
2022,12,01,11,22,158.00
2022,12,01,11,23,168.50
2022,12,01,11,24,180.90
2022,12,01,11,25,183.00
2022,12,01,11,26,187.00
2022,12,01,11,27,198.20
2022,12,01,11,28,200.00
2022,12,01,11,29,202.10
2022,12,01,11,30,214.10
2022,12,01,11,31,225.00
2022,12,01,11,32,225.00
2022,12,01,11,33,225.00
2022,12,01,11,34,225.00
2022,12,01,11,35,289.60
2022,12,01,11,36,239.00
2022,12,01,11,37,236.00
2022,12,01,11,38,255.90
2022,12,01,11,39,291.10
2022,12,01,11,40,257.50
2022,12,01,11,41,267.90
2022,12,01,11,42,304.60
2022,12,01,11,43,272.80
2022,12,01,11,44,269.70
2022,12,01,11,45,281.50
2022,12,01,11,46,480.30
2022,12,01,11,47,473.60
2022,12,01,11,48,475.40
2022,12,01,11,49,476.00
2022,12,01,11,50,477.20
2022,12,01,11,51,480.80
2022,12,01,11,52,482.00
2022,12,01,11,53,482.00
2022,12,01,11,54,482.00
2022,12,01,11,55,440.40
2022,12,01,11,56,299.00
2022,12,01,11,57,299.00
2022,12,01,11,58,352.10
2022,12,01,11,59,424.80
2022,12,01,12,00,445.00
2022,12,01,12,01,445.00
2022,12,01,12,02,335.20
2022,12,01,12,03,330.00
2022,12,01,12,04,330.00
2022,12,01,12,05,401.30
2022,12,01,12,06,526.00
2022,12,01,12,07,526.00
2022,12,01,12,08,526.00
2022,12,01,12,09,526.00
2022,12,01,12,10,501.50
2022,12,01,12,11,500.60
2022,12,01,12,12,497.40
2022,12,01,12,13,499.00
2022,12,01,12,14,489.10
2022,12,01,12,15,476.00
2022,12,01,12,16,476.00
2022,12,01,12,17,476.00
2022,12,01,12,18,476.00
2022,12,01,12,19,472.60
2022,12,01,12,20,385.00
2022,12,01,12,21,370.60
2022,12,01,12,22,363.30
2022,12,01,12,23,362.00
2022,12,01,12,24,359.10
2022,12,01,12,25,351.30
2022,12,01,12,26,340.40
2022,12,01,12,27,332.90
2022,12,01,12,28,330.10
2022,12,01,12,29,329.90
2022,12,01,12,30,328.40
2022,12,01,12,31,327.00
2022,12,01,12,32,327.00
2022,12,01,12,33,328.20
2022,12,01,12,34,329.00
2022,12,01,12,35,329.00
2022,12,01,12,36,331.70
2022,12,01,12,37,329.90
2022,12,01,12,38,329.20
2022,12,01,12,39,330.00
2022,12,01,12,40,330.00
2022,12,01,12,41,330.00
2022,12,01,12,42,330.00
2022,12,01,12,43,334.30
2022,12,01,12,44,334.30
2022,12,01,12,45,333.90
2022,12,01,12,46,331.60
2022,12,01,12,47,331.10
2022,12,01,12,48,334.70
2022,12,01,12,49,336.00
2022,12,01,12,50,336.00
2022,12,01,12,51,342.30
2022,12,01,12,52,339.70
2022,12,01,12,53,338.90
2022,12,01,12,54,339.00
2022,12,01,12,55,338.80
2022,12,01,12,56,342.00
2022,12,01,12,57,351.10
2022,12,01,12,58,353.00
2022,12,01,12,59,353.00
2022,12,01,13,00,350.90
2022,12,01,13,01,350.00
2022,12,01,13,02,341.70
2022,12,01,13,03,338.00
2022,12,01,13,04,326.60
2022,12,01,13,05,290.00
2022,12,01,13,06,299.00
2022,12,01,13,07,313.00
2022,12,01,13,08,316.00
2022,12,01,13,09,315.20
2022,12,01,13,10,317.70
2022,12,01,13,11,318.20
2022,12,01,13,12,320.50
2022,12,01,13,13,323.50
2022,12,01,13,14,324.20
2022,12,01,13,15,324.00
2022,12,01,13,16,329.10
2022,12,01,13,17,332.00
2022,12,01,13,18,329.60
2022,12,01,13,19,316.40
2022,12,01,13,20,302.00
2022,12,01,13,21,300.10
2022,12,01,13,22,293.30
2022,12,01,13,23,292.00
2022,12,01,13,24,292.00
2022,12,01,13,25,292.00
2022,12,01,13,26,292.00
2022,12,01,13,27,292.00
2022,12,01,13,28,291.90
2022,12,01,13,29,289.70
2022,12,01,13,30,287.20
2022,12,01,13,31,283.70
2022,12,01,13,32,280.00
2022,12,01,13,33,279.00
2022,12,01,13,34,279.00
2022,12,01,13,35,280.50
2022,12,01,13,36,281.00
2022,12,01,13,37,285.20
2022,12,01,13,38,287.20
2022,12,01,13,39,288.00
2022,12,01,13,40,287.60
2022,12,01,13,41,286.00
2022,12,01,13,42,281.30
2022,12,01,13,43,279.00
2022,12,01,13,44,279.00
2022,12,01,13,45,279.00
2022,12,01,13,46,278.20
2022,12,01,13,47,274.00
2022,12,01,13,48,274.00
2022,12,01,13,49,274.00
2022,12,01,13,50,262.60
2022,12,01,13,51,252.30
2022,12,01,13,52,250.20
2022,12,01,13,53,254.20
2022,12,01,13,54,258.40
2022,12,01,13,55,262.00
2022,12,01,13,56,262.00
2022,12,01,13,57,262.80
2022,12,01,13,58,264.00
2022,12,01,13,59,265.80
2022,12,01,14,00,270.50
2022,12,01,14,01,271.20
2022,12,01,14,02,267.20
2022,12,01,14,03,267.00
2022,12,01,14,04,266.20
2022,12,01,14,05,261.70
2022,12,01,14,06,257.00
2022,12,01,14,07,246.00
2022,12,01,14,08,232.40
2022,12,01,14,09,230.00
2022,12,01,14,10,222.20
2022,12,01,14,11,220.90
2022,12,01,14,12,219.70
2022,12,01,14,13,218.00
2022,12,01,14,14,218.00
2022,12,01,14,15,215.50
2022,12,01,14,16,213.60
2022,12,01,14,17,195.10
2022,12,01,14,18,185.00
2022,12,01,14,19,204.80
2022,12,01,14,20,200.40
2022,12,01,14,21,151.30
2022,12,01,14,22,195.00
2022,12,01,14,23,195.00
2022,12,01,14,24,193.50
2022,12,01,14,25,192.00
2022,12,01,14,26,183.80
2022,12,01,14,27,178.60
2022,12,01,14,28,175.90
2022,12,01,14,29,172.00
2022,12,01,14,30,172.00
2022,12,01,14,31,170.20
2022,12,01,14,32,165.10
2022,12,01,14,33,160.20
2022,12,01,14,34,158.00
2022,12,01,14,35,158.00
2022,12,01,14,36,158.00
2022,12,01,14,37,156.40
2022,12,01,14,38,142.00
2022,12,01,14,39,141.70
2022,12,01,14,40,140.20
2022,12,01,14,41,139.00
2022,12,01,14,42,139.00
2022,12,01,14,43,135.20
2022,12,01,14,44,132.40
2022,12,01,14,45,132.00
2022,12,01,14,46,127.90
2022,12,01,14,47,127.00
2022,12,01,14,48,125.70
2022,12,01,14,49,123.00
2022,12,01,14,50,121.40
2022,12,01,14,51,120.00
2022,12,01,14,52,117.10
2022,12,01,14,53,116.00
2022,12,01,14,54,115.80
2022,12,01,14,55,110.60
2022,12,01,14,56,109.00
2022,12,01,14,57,109.00
2022,12,01,14,58,109.00
2022,12,01,14,59,106.00
2022,12,01,15,00,102.60
2022,12,01,15,01,100.50
2022,12,01,15,02,98.20
2022,12,01,15,03,94.80
2022,12,01,15,04,92.60
2022,12,01,15,05,91.00
2022,12,01,15,06,91.00
2022,12,01,15,07,91.00
2022,12,01,15,08,81.20
2022,12,01,15,09,74.60
2022,12,01,15,10,72.40
2022,12,01,15,11,71.60
2022,12,01,15,12,63.00
2022,12,01,15,13,62.70
2022,12,01,15,14,61.40
2022,12,01,15,15,55.00
2022,12,01,15,16,49.00
2022,12,01,15,17,45.80
2022,12,01,15,18,42.50
2022,12,01,15,19,40.30
2022,12,01,15,20,39.70
2022,12,01,15,21,37.00
2022,12,01,15,22,35.80
2022,12,01,15,23,35.20
2022,12,01,15,24,40.00
2022,12,01,15,25,41.10
2022,12,01,15,26,40.60
2022,12,01,15,27,36.00
2022,12,01,15,28,32.20
2022,12,01,15,29,32.00
2022,12,01,15,30,31.20
2022,12,01,15,31,27.00
2022,12,01,15,32,24.10
2022,12,01,15,33,23.00
2022,12,01,15,34,23.00
2022,12,01,15,35,23.00
2022,12,01,15,36,21.30
2022,12,01,15,37,21.00
2022,12,01,15,38,21.00
2022,12,01,15,39,21.00
2022,12,01,15,40,21.00
2022,12,01,15,41,21.00
2022,12,01,15,42,21.00
2022,12,01,15,43,19.60
2022,12,01,15,44,19.00
2022,12,01,15,45,19.00
2022,12,01,15,46,19.00
2022,12,01,15,47,18.80
2022,12,01,15,48,18.00
2022,12,01,15,49,18.00
2022,12,01,15,50,18.00
2022,12,01,15,51,18.00
2022,12,01,15,52,16.50
2022,12,01,15,53,16.00
2022,12,01,15,54,16.00
2022,12,01,15,55,16.00
2022,12,01,15,56,16.00
2022,12,01,15,57,15.30
2022,12,01,15,58,14.00
2022,12,01,15,59,14.00
2022,12,01,16,00,14.00
2022,12,01,16,01,14.00
2022,12,01,16,02,14.00
2022,12,01,16,03,12.10
2022,12,01,16,04,12.00
2022,12,01,16,05,12.00
2022,12,01,16,06,12.00
2022,12,01,16,07,12.00
2022,12,01,16,08,12.00
2022,12,01,16,09,11.30
2022,12,01,16,10,11.00
2022,12,01,16,11,11.00
2022,12,01,16,12,10.80
2022,12,01,16,13,9.00
2022,12,01,16,14,9.00
2022,12,01,16,15,8.20
2022,12,01,16,16,7.00
2022,12,01,16,17,7.00
2022,12,01,16,18,7.00
2022,12,01,16,19,5.30
2022,12,01,16,20,5.00
2022,12,01,16,21,5.00
2022,12,01,16,22,5.00
2022,12,01,16,23,5.00
2022,12,01,16,24,5.00
2022,12,01,16,25,5.00
2022,12,01,16,26,1.50
2022,12,01,16,27,0.00
2022,12,01,16,28,0.00
2022,12,01,16,29,0.00
2022,12,01,16,30,0.00
2022,12,01,16,31,0.00
2022,12,01,16,32,0.00
2022,12,01,16,33,0.00
2022,12,01,16,34,0.00
2022,12,01,16,35,0.00
2022,12,01,16,36,0.00
2022,12,01,16,37,0.00
2022,12,01,16,38,0.00
2022,12,01,16,39,0.00
2022,12,01,16,40,0.00
2022,12,01,16,41,0.00
2022,12,01,16,42,0.00
2022,12,01,16,43,0.00
2022,12,01,16,44,0.00
2022,12,01,16,45,0.00
2022,12,01,16,46,0.00
2022,12,01,16,47,0.00
2022,12,01,16,48,0.00
2022,12,01,16,49,0.00
2022,12,01,16,50,0.00
2022,12,01,16,51,0.00
2022,12,01,16,52,0.00
2022,12,01,16,53,0.00
2022,12,01,16,54,0.00
2022,12,01,16,55,0.00
2022,12,01,16,56,0.00
2022,12,01,16,57,0.00
2022,12,01,16,58,0.00
2022,12,01,16,59,0.00
2022,12,01,17,00,0.00
2022,12,01,17,01,0.00
2022,12,01,17,02,0.00
2022,12,01,17,03,0.00
2022,12,01,17,04,0.00
2022,12,01,17,05,0.00
2022,12,01,17,06,0.00
2022,12,01,17,07,0.00
2022,12,01,17,08,0.00
2022,12,01,17,09,0.00
2022,12,01,17,10,0.00
2022,12,01,17,11,0.00
2022,12,01,17,12,0.00
2022,12,01,17,13,0.00
2022,12,01,17,14,0.00
2022,12,01,17,15,0.00
2022,12,01,17,16,0.00
2022,12,01,17,17,0.00
2022,12,01,17,18,0.00
2022,12,01,17,19,0.00
2022,12,01,17,20,0.00
2022,12,01,17,21,0.00
2022,12,01,17,22,0.00
2022,12,01,17,23,0.00
2022,12,01,17,24,0.00
2022,12,01,17,25,0.00
2022,12,01,17,26,0.00
2022,12,01,17,27,0.00
2022,12,01,17,28,0.00
2022,12,01,17,29,0.00
2022,12,01,17,30,0.00
2022,12,01,17,31,0.00